Knox, IN

1:36 AM CST on February 22, 2017 (GMT -0600)
Starke County

Weather History for KOXI - July, 2013

Change the Weather History Date:

Monday, July 1, 2013

  Actual Average (KSBN) Record (KSBN)
Temperature  
Mean Temperature 66 °F -  
Max Temperature 87 °F 81 °F 99 °F (1956)
Min Temperature 56 °F 61 °F 45 °F (1950)
Growing Degree Days 16 (Base 50)    
Moisture  
Dew Point 55 °F    
Average Humidity 68    
Maximum Humidity 99    
Minimum Humidity 52    
Precipitation  
Precipitation 0.00 in - - ()
Sea Level Pressure  
Sea Level Pressure 29.98 in    
Wind  
Wind Speed 9 mph (NE)    
Max Wind Speed 24 mph    
Max Gust Speed 33 mph    
Visibility 10 miles    
Events      
Averages and records for this station are not official NWS values.
T = Trace of Precipitation, MM = Missing Value Source: NWS Daily Summary

Daily Weather History Graph

Daily Weather History Graph

Search for Another Location

Airport or City:

Trip Planner

Search our weather history database for the weather conditions in past years. The results will help you decide how hot, cold, wet, or windy it might be!

Date:

Astronomy

Jul. 01, 2013 Rise Set
Actual Time 5:17 AM CDT 8:23 PM CDT
Civil Twilight 4:43 AM CDT 8:57 PM CDT
Nautical Twilight 4:00 AM CDT 9:40 PM CDT
Astronomical Twilight 3:09 AM CDT 10:31 PM CDT
Moon 12:49 AM CDT (7/1) 2:36 PM CDT (7/1)
Length of Visible Light 16h 13m
Length of Day
15h 06m
Waning Crescent, 35% of the Moon is Illuminated
Jul 1
Waning Crescent
Jul 8
New
Jul 15
First Quarter
Jul 22
Full
Jul 29
Last Quarter

Hourly Weather History & Observations

Time (CDT) Temp. Dew Point Humidity Pressure Visibility Wind Dir Wind Speed Gust Speed Precip Events Conditions
12:15 AM 63.0 °F 61.7 °F 96% 29.94 in 10.0 mi NNE 5.8 mph - N/A   Mostly Cloudy
12:35 AM 61.9 °F 60.8 °F 96% 29.94 in 10.0 mi NNE 5.8 mph - N/A   Scattered Clouds
12:55 AM 61.0 °F 60.4 °F 98% 29.94 in 10.0 mi NNE 6.9 mph - N/A   Clear
1:15 AM 61.2 °F 60.8 °F 99% 29.94 in 10.0 mi North 5.8 mph - N/A   Clear
1:35 AM 62.1 °F 61.2 °F 97% 29.95 in 10.0 mi NNE 5.8 mph - N/A   Clear
1:55 AM 62.6 °F 61.0 °F 94% 29.95 in 10.0 mi North 5.8 mph - N/A   Scattered Clouds
2:15 AM 62.2 °F 60.4 °F 94% 29.95 in 10.0 mi NNE 8.1 mph - N/A   Scattered Clouds
2:35 AM 62.1 °F 59.5 °F 91% 29.95 in 10.0 mi NNE 8.1 mph - N/A   Clear
2:55 AM 61.9 °F 57.9 °F 87% 29.94 in 10.0 mi NNE 9.2 mph - N/A   Clear
3:15 AM 61.3 °F 56.8 °F 85% 29.94 in 10.0 mi NNE 8.1 mph - N/A   Clear
3:35 AM 60.6 °F 55.9 °F 85% 29.94 in 10.0 mi NNE 9.2 mph - N/A   Clear
3:55 AM 59.9 °F 54.9 °F 83% 29.94 in 10.0 mi NNE 8.1 mph - N/A   Clear
4:15 AM 59.4 °F 52.7 °F 79% 29.94 in 10.0 mi NNE 8.1 mph - N/A   Clear
4:35 AM 58.5 °F 50.7 °F 75% 29.95 in 10.0 mi NNE 8.1 mph - N/A   Clear
4:55 AM 57.4 °F 49.3 °F 74% 29.95 in 10.0 mi NNE 8.1 mph - N/A   Clear
5:15 AM 56.5 °F 48.6 °F 75% 29.95 in 10.0 mi NNE 9.2 mph - N/A   Clear
5:35 AM 56.5 °F 47.5 °F 72% 29.96 in 10.0 mi NNE 8.1 mph - N/A   Clear
5:55 AM 56.5 °F 47.3 °F 71% 29.96 in 10.0 mi NNE 8.1 mph - N/A   Clear
6:15 AM 56.5 °F 47.3 °F 71% 29.96 in 10.0 mi NE 10.4 mph - N/A   Clear
6:35 AM 56.8 °F 48.0 °F 72% 29.97 in 10.0 mi NNE 8.1 mph - N/A   Clear
6:55 AM 57.7 °F 49.1 °F 73% 29.97 in 10.0 mi NNE 8.1 mph - N/A   Clear
7:15 AM 58.1 °F 49.6 °F 73% 29.97 in 10.0 mi NNE 8.1 mph - N/A   Clear
7:35 AM 58.5 °F 49.6 °F 72% 29.97 in 10.0 mi NNE 10.4 mph - N/A   Clear
7:55 AM 59.5 °F 49.1 °F 68% 29.98 in 10.0 mi NNE 9.2 mph - N/A   Clear
8:15 AM 60.6 °F 50.5 °F 69% 29.98 in 10.0 mi NE 11.5 mph - N/A   Clear
8:35 AM 62.4 °F 51.8 °F 68% 29.99 in 10.0 mi NNE 10.4 mph - N/A   Clear
8:55 AM 63.5 °F 53.2 °F 69% 29.99 in 10.0 mi NNE 9.2 mph - N/A   Clear
9:15 AM 65.1 °F 54.7 °F 69% 29.98 in 10.0 mi NNE 9.2 mph - N/A   Clear
9:35 AM 65.3 °F 54.5 °F 68% 29.99 in 10.0 mi NNE 9.2 mph - N/A   Mostly Cloudy
9:55 AM 65.8 °F 55.4 °F 69% 29.99 in 10.0 mi NNE 10.4 mph - N/A   Overcast
10:15 AM 66.0 °F 54.9 °F 67% 29.99 in 10.0 mi NE 11.5 mph - N/A   Mostly Cloudy
10:35 AM 66.6 °F 55.6 °F 68% 30.00 in 10.0 mi NNE 9.2 mph - N/A   Overcast
10:55 AM 68.2 °F 56.3 °F 66% 30.00 in 10.0 mi NNE 11.5 mph - N/A   Scattered Clouds
11:15 AM 69.4 °F 57.7 °F 66% 29.99 in 10.0 mi NNE 11.5 mph 16.1 mph N/A   Clear
11:35 AM 69.8 °F 58.6 °F 68% 29.99 in 10.0 mi NNE 10.4 mph - N/A   Clear
11:55 AM 71.8 °F 59.9 °F 66% 29.99 in 10.0 mi NNE 17.3 mph - N/A   Scattered Clouds
12:15 PM 72.7 °F 59.9 °F 64% 29.99 in 10.0 mi NE 11.5 mph - N/A   Mostly Cloudy
12:35 PM 72.3 °F 59.5 °F 64% 29.99 in 10.0 mi NNE 11.5 mph - N/A   Scattered Clouds
12:55 PM 72.7 °F 59.2 °F 62% 29.98 in 10.0 mi North 12.7 mph 18.4 mph N/A   Scattered Clouds
1:15 PM 73.0 °F 59.5 °F 62% 29.98 in 10.0 mi NNE 15.0 mph - N/A   Mostly Cloudy
1:35 PM 73.2 °F 60.1 °F 63% 29.98 in 7.0 mi NNE 11.5 mph 19.6 mph N/A   Mostly Cloudy
1:55 PM 73.8 °F 59.4 °F 61% 29.97 in 10.0 mi NE 13.8 mph 19.6 mph N/A   Mostly Cloudy
2:15 PM 74.7 °F 59.0 °F 58% 29.97 in 7.0 mi NE 12.7 mph 19.6 mph N/A   Mostly Cloudy
2:35 PM 75.0 °F 59.0 °F 57% 29.97 in 10.0 mi NE 12.7 mph 18.4 mph N/A   Mostly Cloudy
2:55 PM 75.7 °F 58.6 °F 55% 29.98 in 10.0 mi NE 16.1 mph 23.0 mph N/A   Scattered Clouds
3:15 PM 75.6 °F 59.4 °F 57% 29.98 in 10.0 mi NE 13.8 mph 25.3 mph N/A   Mostly Cloudy
3:35 PM 74.3 °F 59.0 °F 59% 29.98 in 10.0 mi East 20.7 mph - N/A   Overcast
3:55 PM 73.9 °F 58.8 °F 59% 29.98 in 10.0 mi ENE 20.7 mph 26.5 mph N/A   Overcast
4:15 PM 72.1 °F 58.5 °F 62% 29.99 in 10.0 mi ENE 24.2 mph 33.4 mph N/A   Overcast
4:35 PM 70.3 °F 58.1 °F 65% 30.00 in 10.0 mi East 16.1 mph 25.3 mph N/A   Overcast
4:55 PM 70.3 °F 58.5 °F 66% 30.00 in 10.0 mi ENE 16.1 mph 23.0 mph N/A   Overcast
5:15 PM 69.8 °F 58.5 °F 67% 30.00 in 10.0 mi ENE 12.7 mph 17.3 mph N/A   Overcast
5:35 PM 69.8 °F 57.7 °F 65% 30.00 in 10.0 mi ENE 13.8 mph 18.4 mph N/A   Overcast
5:55 PM 69.8 °F 54.3 °F 58% 30.00 in 10.0 mi ENE 10.4 mph - N/A   Overcast
6:15 PM 69.1 °F 54.7 °F 60% 30.00 in 10.0 mi NE 5.8 mph - N/A   Overcast
6:35 PM 69.3 °F 53.1 °F 56% 30.01 in 10.0 mi NE 10.4 mph - N/A   Overcast
6:55 PM 69.3 °F 51.1 °F 52% 30.01 in 10.0 mi NE 10.4 mph - N/A   Overcast
7:15 PM 68.9 °F 50.5 °F 52% 30.01 in 10.0 mi NNE 8.1 mph - N/A   Overcast
7:35 PM 68.4 °F 51.1 °F 54% 30.01 in 10.0 mi NE 5.8 mph - N/A   Overcast
7:55 PM 67.8 °F 51.8 °F 56% 30.02 in 10.0 mi NE 5.8 mph - N/A   Overcast
8:15 PM 67.3 °F 52.2 °F 58% 30.02 in 10.0 mi NE 4.6 mph - N/A   Overcast
8:35 PM 67.5 °F 51.6 °F 57% 30.02 in 10.0 mi ENE 10.4 mph - N/A   Overcast
8:55 PM 67.8 °F 49.8 °F 52% 30.02 in 10.0 mi ENE 8.1 mph - N/A   Overcast
9:15 PM 67.1 °F 50.2 °F 55% 30.02 in 10.0 mi ENE 8.1 mph - N/A   Overcast
9:35 PM 67.1 °F 50.4 °F 55% 30.03 in 10.0 mi NE 9.2 mph - N/A   Overcast
9:55 PM 67.1 °F 50.5 °F 55% 30.03 in 10.0 mi NE 8.1 mph - N/A   Overcast
10:15 PM 66.6 °F 50.7 °F 57% 30.03 in 10.0 mi NE 8.1 mph - N/A   Overcast
10:35 PM 66.0 °F 50.7 °F 58% 30.03 in 10.0 mi ENE 11.5 mph 17.3 mph N/A   Overcast
10:55 PM 66.2 °F 49.6 °F 55% 30.03 in 10.0 mi NE 9.2 mph 17.3 mph N/A   Mostly Cloudy
11:15 PM 65.7 °F 49.5 °F 56% 30.03 in 10.0 mi ENE 10.4 mph - N/A   Scattered Clouds
11:35 PM 65.7 °F 49.1 °F 55% 30.03 in 10.0 mi ENE 8.1 mph - N/A   Scattered Clouds
11:55 PM 64.8 °F 49.5 °F 58% 30.03 in 10.0 mi NE 6.9 mph - N/A   Scattered Clouds